#timestamp,LO_Frequency,Hit,StdDev 
1697886015.5,286046996.6,N
1697886035.3,286046995.5,N
1697886055.2,286046994.5,N
1697886075.0,286046995.4,N
1697886075.9,286046995.4,N
1697886095.8,286046994.6,N
1697886115.6,286046996.2,N
1697886135.4,286046996.8,N
1697886155.3,286046996.5,N
1697886175.1,286046999.2,N
1697886195.8,286046995.9,N
1697886215.7,286046997.9,N
1697886235.5,286046993.4,Y
1697886255.4,286046997.3,P
1697886275.2,286046997.8,P
1697886295.0,286046993.9,P
1697886295.9,286046993.9,Y
1697886315.8,286046995.3,P
1697886335.6,286046997.2,P
1697886355.4,286046999.0,N
1697886375.3,286046998.6,N
1697886395.1,286046996.5,N
1697886415.9,286046999.0,N
1697886435.7,286046999.1,N
1697886455.5,286046997.9,N
1697886475.4,286046995.9,Y
1697886495.2,286046997.6,P
1697886515.1,286046995.8,P
1697886516.0,286046995.8,P
1697886535.8,286046997.3,N
1697886555.6,286046997.2,Y
1697886575.5,286046998.7,P
1697886595.3,286046997.1,P
1697886615.2,286046999.4,N
1697886635.9,286046999.9,N
1697886655.7,286047004.9,Y
1697886675.6,286047012.3,P
1697886695.4,286047013.5,N
1697886715.2,286047015.1,N
1697886735.1,286047013.2,N
1697886736.0,286047013.2,N
1697886755.8,286047006.4,N
1697886775.7,286047006.4,N
1697886795.5,286047005.0,N
1697886815.3,286047003.0,N
1697886835.2,286047001.8,N
1697886855.0,286047000.1,N
1697886855.9,286047000.1,N
1697886875.8,286047002.8,N
1697886895.6,286047002.0,N
1697886915.4,286047005.9,N
1697886935.3,286047006.2,N
1697886955.1,286047010.8,N
1697886975.8,286047010.4,N
1697886995.7,286047008.6,N
1697887015.5,286047006.9,N
1697887035.3,286047004.6,N
1697887055.2,286047005.5,N
1697887075.0,286047007.3,N
1697887075.9,286047007.3,N
1697887095.8,286047009.9,N
1697887115.6,286047011.0,N
1697887135.4,286047013.5,Y
1697887155.3,286047007.5,P
1697887175.1,286047004.4,P
1697887195.9,286046998.1,N
1697887215.7,286046997.1,N
1697887235.5,286046996.8,N
1697887255.4,286046997.4,N
1697887275.2,286046993.9,N
1697887295.0,286046994.9,N
1697887295.9,286046994.9,N
1697887315.8,286046999.3,N
1697887335.6,286047000.3,N
1697887355.5,286046998.4,N
1697887375.3,286046999.6,N
1697887395.1,286046993.7,N
1697887415.9,286046995.5,N
1697887435.7,286046995.6,N
1697887455.5,286046995.1,N
1697887475.4,286047001.1,N
1697887495.2,286046998.3,N
1697887515.0,286046998.1,N
1697887516.0,286046998.1,N
1697887535.8,286046997.0,N
1697887555.6,286046995.5,N
1697887575.5,286046995.6,N
1697887595.3,286047002.3,N
1697887615.1,286047004.4,N
1697887635.9,286047004.4,N
1697887685.7,286046999.1,E
1697887695.7,286046999.4,N
1697887715.5,286046995.1,P
1697887735.3,286046995.1,N
1697887755.2,286046999.2,N
1697887775.0,286046998.1,N
1697887775.9,286046998.1,N
1697887795.8,286047004.2,N
1697887815.6,286047003.7,N
1697887835.4,286047002.6,N
1697887855.3,286046996.9,N
1697887875.1,286046996.0,N
1697887895.9,286046995.2,N
1697887915.7,286047001.1,N
1697887935.5,286046993.7,N
1697887955.4,286046997.2,N
1697887975.2,286046998.9,N
1697887995.0,286046998.3,N
1697887995.9,286046998.3,N
1697888015.8,286046995.3,N
1697888035.6,286046997.7,N
1697888055.5,286046996.0,N
1697888075.3,286046996.1,N
1697888095.1,286046994.4,N
1697888115.9,286046995.8,N
1697888135.7,286046999.6,N
1697888155.5,286046999.2,N
1697888175.4,286046995.0,N
1697888195.2,286046998.0,N
1697888215.1,286046992.1,N
1697888216.0,286046992.1,N
1697888235.8,286046991.5,N
1697888255.6,286046986.9,Y
1697888275.5,286046990.4,P
1697888295.3,286046987.3,P
1697888315.2,286046985.8,P
1697888335.9,286046980.8,Y
1697888355.7,286046991.9,P
1697888375.6,286046997.4,P
1697888395.4,286046995.2,N
1697888415.3,286046998.6,N
1697888435.1,286047002.0,N
1697888436.0,286047002.0,N
1697888455.8,286046999.1,N
1697888475.7,286046997.0,N
1697888495.5,286046995.6,N
1697888515.4,286046994.7,N
1697888535.2,286046994.8,N
1697888555.0,286046991.7,N
1697888555.9,286046991.7,N
1697888575.8,286046996.7,N
1697888595.6,286046998.3,N
1697888615.4,286047002.7,N
1697888635.3,286047001.8,N
1697888655.1,286047001.3,N
1697888675.9,286047004.4,N
1697888695.7,286046997.3,N
1697888715.5,286047011.9,N
1697888735.4,286046995.8,N
1697888755.2,286047000.9,N
1697888775.1,286046999.5,N
1697888776.0,286046999.5,N
1697888795.8,286046997.2,N
1697888815.6,286047000.1,N
1697888835.5,286047002.6,N
1697888855.3,286047002.0,N
1697888875.1,286046999.8,N
1697888895.9,286047002.6,N
1697888915.7,286046998.4,N
1697888935.6,286046999.2,N
1697888955.4,286046998.6,N
1697888975.2,286047001.2,N
1697888995.1,286046993.8,N
1697888996.0,286046993.8,N
1697889015.8,286046994.0,N
1697889035.7,286046995.6,N
1697889055.5,286047001.1,N
1697889075.3,286046997.0,N
1697889095.2,286046998.0,N
1697889115.0,286046993.8,N
1697889115.9,286046993.8,N
1697889135.7,286046997.1,N
1697889155.6,286046993.3,N
1697889175.4,286046995.6,N
1697889195.3,286046999.2,N
1697889215.1,286046994.9,N
1697889235.8,286046999.4,N
1697889255.7,286046998.4,N
1697889275.5,286046996.8,N
1697889295.3,286046997.8,N
1697889315.2,286046999.3,N
1697889335.0,286046998.7,N
1697889335.9,286046998.7,N
1697889355.8,286046998.9,N
1697889375.6,286046997.3,N
1697889395.4,286046991.7,Y
1697889415.3,286046995.6,P
1697889435.1,286046996.6,P
1697889455.9,286046999.0,N
1697889475.7,286046998.8,N
1697889495.5,286046995.5,Y
1697889515.4,286046992.0,P
1697889535.2,286046986.6,P
1697889555.1,286046981.0,P
1697889556.0,286046981.0,Y
1697889575.8,286046997.2,P
1697889595.6,286046993.5,N
